EZY37TN LDSP-EGGW

Flight info

Callsign EZY37TN
Flight time 2h 23m
Altitude 38000
Route ZDA DCT MONFA DCT BAKOR DCT SOTOV DCT KPT DCT KUNOD L608 TEDGO DCT SUNEG L608 ULNOK DCT ADENU DCT LIRSU DCT SOGRI DCT KOZUF DCT IMPOH DCT SASKI L608 SUMUM Y6 TOSVA
Aircraft A319/M-SDE3FGHIRWY/LB1

Departure

Time 2026-04-27 13:24
Airport Split Saint Jerome Airport (LDSP)

Arrival

Time 2026-04-27 15:47
Airport London Luton Airport (EGGW)
Time Latitude Longitude Altitude Speed Heading
2026-04-27 12:55 43.53729 16.29865 68 ft 0 kts 114°
2026-04-27 13:16 43.53729 16.29866 68 ft 1 kts 112°
2026-04-27 13:16 43.53733 16.29874 68 ft 1 kts 49°
2026-04-27 13:17 43.53741 16.29870 60 ft 1 kts 339°
2026-04-27 13:17 43.53757 16.29849 64 ft 5 kts 326°
2026-04-27 13:17 43.53793 16.29859 68 ft 6 kts 38°
2026-04-27 13:17 43.53816 16.29898 65 ft 7 kts 52°
2026-04-27 13:18 43.53851 16.29959 66 ft 9 kts 53°
2026-04-27 13:18 43.53880 16.30013 68 ft 0 kts 53°
2026-04-27 13:20 43.53884 16.30021 68 ft 4 kts 53°
2026-04-27 13:21 43.53924 16.30066 66 ft 11 kts 22°
2026-04-27 13:21 43.54003 16.30096 69 ft 11 kts 19°
2026-04-27 13:21 43.54075 16.30146 71 ft 14 kts 36°
2026-04-27 13:21 43.54155 16.30258 72 ft 20 kts 52°
2026-04-27 13:22 43.54254 16.30437 59 ft 26 kts 52°
2026-04-27 13:22 43.54374 16.30651 57 ft 30 kts 52°
2026-04-27 13:22 43.54494 16.30864 55 ft 20 kts 53°
2026-04-27 13:22 43.54551 16.30984 60 ft 12 kts 71°
2026-04-27 13:23 43.54569 16.31057 58 ft 4 kts 25°
2026-04-27 13:23 43.54577 16.31029 56 ft 5 kts 236°
2026-04-27 13:23 43.54506 16.30892 58 ft 46 kts 234°
2026-04-27 13:23 43.54153 16.30258 72 ft 117 kts 232°
2026-04-27 13:24 43.53566 16.29197 329 ft 147 kts 232°
2026-04-27 13:24 43.52915 16.28102 1071 ft 147 kts 230°
2026-04-27 13:24 43.52252 16.27021 1832 ft 150 kts 228°
2026-04-27 13:24 43.51578 16.25910 2482 ft 152 kts 228°
2026-04-27 13:25 43.50903 16.24781 3159 ft 153 kts 227°
2026-04-27 13:25 43.50187 16.23583 3576 ft 173 kts 227°
2026-04-27 13:25 43.49373 16.22234 3970 ft 194 kts 227°
2026-04-27 13:25 43.48456 16.20700 4377 ft 220 kts 231°
2026-04-27 13:26 43.47819 16.18657 4835 ft 251 kts 262°
2026-04-27 13:26 43.48194 16.16226 5413 ft 275 kts 300°
2026-04-27 13:26 43.49413 16.14150 6367 ft 282 kts 312°
2026-04-27 13:26 43.50801 16.12235 7421 ft 285 kts 315°
2026-04-27 13:27 43.51782 16.10957 8087 ft 288 kts 316°
2026-04-27 13:27 43.53255 16.09058 9099 ft 292 kts 316°
2026-04-27 13:27 43.54732 16.07136 10137 ft 293 kts 316°
2026-04-27 13:27 43.56225 16.05156 10692 ft 312 kts 315°
2026-04-27 13:28 43.57829 16.02991 11392 ft 323 kts 315°
2026-04-27 13:28 43.59411 16.00833 12306 ft 326 kts 315°
2026-04-27 13:28 43.61024 15.98618 13269 ft 328 kts 314°
2026-04-27 13:28 43.62648 15.96382 14146 ft 331 kts 314°
2026-04-27 13:29 43.64283 15.94130 14968 ft 334 kts 314°
2026-04-27 13:29 43.65931 15.91856 15764 ft 337 kts 314°
2026-04-27 13:29 43.67597 15.89560 16550 ft 340 kts 314°
2026-04-27 13:29 43.69280 15.87241 17336 ft 343 kts 314°
2026-04-27 13:30 43.70974 15.84906 18107 ft 346 kts 314°
2026-04-27 13:30 43.72684 15.82543 18815 ft 349 kts 314°
2026-04-27 13:30 43.74407 15.80160 19486 ft 352 kts 314°
2026-04-27 13:30 43.76141 15.77760 20176 ft 354 kts 314°
2026-04-27 13:31 43.77889 15.75335 20861 ft 357 kts 315°
2026-04-27 13:31 43.79652 15.72894 21539 ft 360 kts 315°
2026-04-27 13:31 43.81429 15.70432 22206 ft 363 kts 315°
2026-04-27 13:31 43.83220 15.67949 22887 ft 366 kts 315°
2026-04-27 13:32 43.85028 15.65438 23558 ft 369 kts 315°
2026-04-27 13:32 43.86843 15.62913 24134 ft 372 kts 315°
2026-04-27 13:32 43.88680 15.60353 24686 ft 375 kts 315°
2026-04-27 13:32 43.90526 15.57779 25227 ft 378 kts 315°
2026-04-27 13:33 43.92388 15.55182 25762 ft 381 kts 315°
2026-04-27 13:33 43.94263 15.52565 26285 ft 384 kts 315°
2026-04-27 13:33 43.96148 15.49933 26794 ft 387 kts 316°
2026-04-27 13:33 43.98051 15.47277 27298 ft 389 kts 316°
2026-04-27 13:34 43.99969 15.44596 27802 ft 392 kts 316°
2026-04-27 13:34 44.01897 15.41897 28301 ft 395 kts 316°
2026-04-27 13:34 44.03813 15.39211 28786 ft 398 kts 316°
2026-04-27 13:34 44.05768 15.36467 29275 ft 401 kts 316°
2026-04-27 13:35 44.07759 15.33666 29750 ft 404 kts 316°
2026-04-27 13:35 44.09743 15.30874 30192 ft 408 kts 316°
2026-04-27 13:35 44.11743 15.28055 30578 ft 411 kts 316°
2026-04-27 13:35 44.13733 15.25251 30962 ft 413 kts 316°
2026-04-27 13:36 44.15785 15.22356 31352 ft 416 kts 316°
2026-04-27 13:36 44.17791 15.19526 31758 ft 417 kts 316°
2026-04-27 13:36 44.19826 15.16653 32287 ft 416 kts 316°
2026-04-27 13:36 44.21855 15.13783 32821 ft 415 kts 316°
2026-04-27 13:37 44.23876 15.10919 33350 ft 413 kts 316°
2026-04-27 13:37 44.25887 15.08062 33881 ft 412 kts 316°
2026-04-27 13:37 44.27891 15.05215 34355 ft 411 kts 316°
2026-04-27 13:37 44.29892 15.02366 34788 ft 411 kts 316°
2026-04-27 13:38 44.31893 14.99517 35216 ft 410 kts 315°
2026-04-27 13:38 44.33891 14.96669 35636 ft 410 kts 315°
2026-04-27 13:38 44.35883 14.93828 36038 ft 409 kts 315°
2026-04-27 13:38 44.37873 14.90990 36439 ft 408 kts 315°
2026-04-27 13:39 44.39860 14.88156 36821 ft 408 kts 315°
2026-04-27 13:39 44.41842 14.85326 37204 ft 407 kts 315°
2026-04-27 13:39 44.43819 14.82497 37584 ft 406 kts 315°
2026-04-27 13:39 44.45790 14.79668 37936 ft 406 kts 315°
2026-04-27 13:40 44.47762 14.76835 38101 ft 405 kts 315°
2026-04-27 13:40 44.49724 14.74019 38115 ft 403 kts 315°
2026-04-27 13:40 44.53668 14.68340 38121 ft 411 kts 315°
2026-04-27 13:41 44.57679 14.62555 38120 ft 415 kts 315°
2026-04-27 13:41 44.61702 14.56741 38120 ft 415 kts 315°
2026-04-27 13:42 44.65729 14.50927 38126 ft 415 kts 314°
2026-04-27 13:42 44.69743 14.45103 38112 ft 415 kts 314°
2026-04-27 13:43 44.73754 14.39267 38113 ft 415 kts 314°
2026-04-27 13:43 44.77762 14.33426 38122 ft 415 kts 314°
2026-04-27 13:44 44.81772 14.27574 38123 ft 415 kts 314°
2026-04-27 13:44 44.85778 14.21711 38121 ft 415 kts 314°
2026-04-27 13:45 44.89781 14.15851 38128 ft 415 kts 314°
2026-04-27 13:45 44.93784 14.09973 38123 ft 415 kts 314°
2026-04-27 13:46 44.97774 14.04082 38122 ft 415 kts 314°
2026-04-27 13:46 45.01737 13.98237 38128 ft 415 kts 314°
2026-04-27 13:47 45.05727 13.92356 38120 ft 415 kts 314°
2026-04-27 13:47 45.09713 13.86447 38110 ft 415 kts 314°
2026-04-27 13:48 45.13691 13.80525 38122 ft 415 kts 314°
2026-04-27 13:48 45.17662 13.74610 38117 ft 414 kts 314°
2026-04-27 13:49 45.21631 13.68689 38119 ft 414 kts 314°
2026-04-27 13:49 45.25603 13.62759 38120 ft 414 kts 314°
2026-04-27 13:50 45.29564 13.56811 38122 ft 415 kts 314°
2026-04-27 13:50 45.33527 13.50855 38122 ft 415 kts 314°
2026-04-27 13:51 45.37494 13.44897 38127 ft 415 kts 314°
2026-04-27 13:51 45.41456 13.38936 38126 ft 414 kts 314°
2026-04-27 13:52 45.45405 13.32958 38115 ft 414 kts 313°
2026-04-27 13:52 45.49360 13.26989 38107 ft 414 kts 314°
2026-04-27 13:53 45.55549 13.18386 38124 ft 414 kts 316°
2026-04-27 13:54 45.59717 13.12699 38121 ft 414 kts 316°
2026-04-27 13:54 45.63880 13.07006 38130 ft 414 kts 316°
2026-04-27 13:55 45.68032 13.01289 38112 ft 414 kts 316°
2026-04-27 13:55 45.72173 12.95567 38120 ft 414 kts 316°
2026-04-27 13:56 45.76313 12.89837 38116 ft 414 kts 316°
2026-04-27 13:56 45.80429 12.84143 38115 ft 414 kts 316°
2026-04-27 13:57 45.84559 12.78395 38119 ft 414 kts 316°
2026-04-27 13:57 45.88690 12.72641 38131 ft 414 kts 316°
2026-04-27 13:58 45.92814 12.66889 38116 ft 413 kts 316°
2026-04-27 13:58 45.96935 12.61131 38123 ft 413 kts 316°
2026-04-27 13:59 46.01051 12.55367 38123 ft 413 kts 316°
2026-04-27 13:59 46.05169 12.49597 38109 ft 413 kts 316°
2026-04-27 14:00 46.09274 12.43816 38118 ft 413 kts 316°
2026-04-27 14:00 46.13380 12.38018 38106 ft 413 kts 316°
2026-04-27 14:01 46.17489 12.32215 38110 ft 414 kts 316°
2026-04-27 14:01 46.21598 12.26397 38104 ft 414 kts 316°
2026-04-27 14:02 46.25704 12.20576 38102 ft 414 kts 316°
2026-04-27 14:02 46.29810 12.14728 38104 ft 414 kts 316°
2026-04-27 14:03 46.33909 12.08875 38111 ft 414 kts 316°
2026-04-27 14:03 46.38008 12.03022 38108 ft 413 kts 315°
2026-04-27 14:04 46.42093 11.97174 38109 ft 412 kts 315°
2026-04-27 14:04 46.46162 11.91334 38102 ft 412 kts 315°
2026-04-27 14:05 46.50227 11.85487 38099 ft 411 kts 315°
2026-04-27 14:05 46.54285 11.79628 38079 ft 412 kts 315°
2026-04-27 14:06 46.58340 11.73761 38086 ft 411 kts 315°
2026-04-27 14:06 46.62391 11.67901 38067 ft 410 kts 315°
2026-04-27 14:07 46.66432 11.62042 38063 ft 410 kts 315°
2026-04-27 14:07 46.70462 11.56180 38045 ft 409 kts 315°
2026-04-27 14:08 46.74487 11.50307 38055 ft 409 kts 315°
2026-04-27 14:08 46.78505 11.44430 38062 ft 409 kts 315°
2026-04-27 14:09 46.82518 11.38548 38095 ft 409 kts 315°
2026-04-27 14:09 46.86529 11.32661 38096 ft 408 kts 315°
2026-04-27 14:10 46.90502 11.26816 38104 ft 407 kts 315°
2026-04-27 14:10 46.94525 11.20988 38102 ft 406 kts 318°
2026-04-27 14:11 46.98949 11.15840 38119 ft 407 kts 323°
2026-04-27 14:11 47.03563 11.11046 38115 ft 406 kts 323°
2026-04-27 14:12 47.08129 11.06177 38132 ft 405 kts 322°
2026-04-27 14:12 47.12617 11.01183 38119 ft 405 kts 321°
2026-04-27 14:13 47.17085 10.96166 38124 ft 404 kts 322°
2026-04-27 14:13 47.21569 10.91168 38141 ft 404 kts 322°
2026-04-27 14:14 47.26042 10.86177 38142 ft 403 kts 322°
2026-04-27 14:14 47.29759 10.82031 38146 ft 403 kts 321°
2026-04-27 14:15 47.34218 10.77049 38145 ft 401 kts 321°
2026-04-27 14:15 47.38660 10.72054 38163 ft 402 kts 321°
2026-04-27 14:16 47.43097 10.67052 38173 ft 401 kts 321°
2026-04-27 14:16 47.47528 10.62043 38170 ft 401 kts 321°
2026-04-27 14:17 47.51954 10.57033 38174 ft 401 kts 321°
2026-04-27 14:17 47.56380 10.52015 38187 ft 401 kts 320°
2026-04-27 14:18 47.60802 10.47000 38171 ft 400 kts 320°
2026-04-27 14:18 47.65216 10.41973 38168 ft 400 kts 320°
2026-04-27 14:19 47.69625 10.36946 38171 ft 400 kts 320°
2026-04-27 14:19 47.74027 10.31909 38167 ft 399 kts 320°
2026-04-27 14:20 47.78418 10.26847 38175 ft 399 kts 320°
2026-04-27 14:20 47.82776 10.21808 38170 ft 399 kts 320°
2026-04-27 14:21 47.87161 10.16733 38158 ft 399 kts 319°
2026-04-27 14:21 47.91544 10.11642 38157 ft 400 kts 319°
2026-04-27 14:22 47.95926 10.06540 38157 ft 400 kts 319°
2026-04-27 14:22 48.00311 10.01420 38176 ft 400 kts 319°
2026-04-27 14:23 48.04695 9.96297 38175 ft 400 kts 319°
2026-04-27 14:23 48.09075 9.91158 38175 ft 400 kts 319°
2026-04-27 14:24 48.13455 9.86008 38176 ft 400 kts 319°
2026-04-27 14:24 48.17833 9.80860 38164 ft 401 kts 319°
2026-04-27 14:25 48.22213 9.75703 38165 ft 401 kts 318°
2026-04-27 14:25 48.26550 9.70435 38181 ft 398 kts 311°
2026-04-27 14:26 48.30272 9.64293 38173 ft 398 kts 309°
2026-04-27 14:26 48.33985 9.58132 38166 ft 398 kts 310°
2026-04-27 14:27 48.37770 9.52055 38164 ft 398 kts 310°
2026-04-27 14:27 48.41581 9.46011 38147 ft 398 kts 310°
2026-04-27 14:28 48.45370 9.39936 38154 ft 398 kts 310°
2026-04-27 14:28 48.49146 9.33840 38151 ft 398 kts 310°
2026-04-27 14:29 48.52924 9.27732 38163 ft 398 kts 310°
2026-04-27 14:29 48.56691 9.21615 38170 ft 398 kts 310°
2026-04-27 14:30 48.60464 9.15494 38172 ft 398 kts 310°
2026-04-27 14:30 48.64232 9.09367 38167 ft 398 kts 310°
2026-04-27 14:31 48.67994 9.03227 38168 ft 398 kts 309°
2026-04-27 14:31 48.71750 8.97082 38165 ft 398 kts 309°
2026-04-27 14:32 48.75499 8.90919 38176 ft 398 kts 309°
2026-04-27 14:32 48.79244 8.84749 38166 ft 397 kts 309°
2026-04-27 14:33 48.82993 8.78589 38164 ft 397 kts 309°
2026-04-27 14:33 48.86737 8.72406 38150 ft 398 kts 309°
2026-04-27 14:34 48.90477 8.66208 38152 ft 398 kts 309°
2026-04-27 14:34 48.94220 8.59985 38157 ft 399 kts 309°
2026-04-27 14:35 48.97961 8.53750 38156 ft 399 kts 309°
2026-04-27 14:35 49.01677 8.47546 38171 ft 399 kts 309°
2026-04-27 14:36 49.05423 8.41304 38173 ft 399 kts 309°
2026-04-27 14:36 49.09164 8.35046 38170 ft 399 kts 309°
2026-04-27 14:37 49.12901 8.28771 38166 ft 400 kts 309°
2026-04-27 14:37 49.16637 8.22481 38170 ft 400 kts 309°
2026-04-27 14:38 49.20371 8.16186 38178 ft 400 kts 309°
2026-04-27 14:38 49.24096 8.09872 38191 ft 400 kts 309°
2026-04-27 14:39 49.27815 8.03541 38193 ft 400 kts 309°
2026-04-27 14:39 49.31550 7.97201 38186 ft 401 kts 309°
2026-04-27 14:40 49.35285 7.90859 38174 ft 401 kts 309°
2026-04-27 14:40 49.39015 7.84484 38179 ft 401 kts 309°
2026-04-27 14:41 49.42737 7.78093 38182 ft 402 kts 309°
2026-04-27 14:41 49.46461 7.71692 38181 ft 402 kts 309°
2026-04-27 14:42 49.50185 7.65287 38195 ft 402 kts 309°
2026-04-27 14:42 49.53908 7.58867 38186 ft 402 kts 309°
2026-04-27 14:43 49.57625 7.52430 38187 ft 402 kts 309°
2026-04-27 14:43 49.61344 7.45980 38192 ft 402 kts 309°
2026-04-27 14:44 49.65061 7.39521 38192 ft 402 kts 309°
2026-04-27 14:44 49.68769 7.33048 38192 ft 402 kts 308°
2026-04-27 14:45 49.72474 7.26573 38193 ft 402 kts 308°
2026-04-27 14:45 49.76178 7.20085 38210 ft 402 kts 308°
2026-04-27 14:46 49.79880 7.13595 38203 ft 402 kts 308°
2026-04-27 14:46 49.83580 7.07081 38191 ft 403 kts 308°
2026-04-27 14:47 49.87280 7.00561 38193 ft 403 kts 308°
2026-04-27 14:47 49.90949 6.94072 38194 ft 403 kts 308°
2026-04-27 14:48 49.94634 6.87529 38192 ft 403 kts 308°
2026-04-27 14:48 50.00181 6.77722 38215 ft 403 kts 309°
2026-04-27 14:49 50.03923 6.71221 38199 ft 404 kts 309°
2026-04-27 14:49 50.07666 6.64705 38179 ft 404 kts 309°
2026-04-27 14:50 50.11402 6.58162 38178 ft 404 kts 308°
2026-04-27 14:50 50.15127 6.51598 38171 ft 405 kts 308°
2026-04-27 14:51 50.18821 6.44978 38173 ft 403 kts 304°
2026-04-27 14:51 50.21527 6.38994 38179 ft 402 kts 302°
2026-04-27 14:52 50.25274 6.30690 38188 ft 402 kts 302°
2026-04-27 14:52 50.28497 6.23526 38197 ft 403 kts 302°
2026-04-27 14:53 50.31709 6.16347 38189 ft 403 kts 302°
2026-04-27 14:53 50.34919 6.09156 38189 ft 403 kts 302°
2026-04-27 14:54 50.38127 6.01957 38192 ft 403 kts 302°
2026-04-27 14:54 50.41328 5.94752 38192 ft 403 kts 302°
2026-04-27 14:55 50.44369 5.87372 38197 ft 402 kts 297°
2026-04-27 14:55 50.47067 5.79695 38200 ft 402 kts 296°
2026-04-27 14:56 50.49707 5.71962 38211 ft 402 kts 296°
2026-04-27 14:56 50.52352 5.64232 38219 ft 402 kts 296°
2026-04-27 14:57 50.55014 5.56498 38214 ft 403 kts 296°
2026-04-27 14:57 50.57677 5.48749 38214 ft 403 kts 296°
2026-04-27 14:58 50.60341 5.40984 38217 ft 403 kts 296°
2026-04-27 14:58 50.62977 5.33264 38217 ft 403 kts 296°
2026-04-27 14:59 50.65623 5.25481 38220 ft 403 kts 296°
2026-04-27 14:59 50.68271 5.17684 38221 ft 403 kts 295°
2026-04-27 15:00 50.70907 5.09887 38222 ft 403 kts 295°
2026-04-27 15:00 50.73532 5.02079 38226 ft 403 kts 295°
2026-04-27 15:01 50.76160 4.94258 38227 ft 403 kts 295°
2026-04-27 15:01 50.78795 4.86426 38249 ft 403 kts 295°
2026-04-27 15:02 50.81002 4.79864 38244 ft 404 kts 295°
2026-04-27 15:02 50.83635 4.72017 38239 ft 404 kts 295°
2026-04-27 15:03 50.86252 4.64169 38230 ft 403 kts 295°
2026-04-27 15:03 50.88864 4.56306 38229 ft 403 kts 295°
2026-04-27 15:04 50.91472 4.48433 38227 ft 403 kts 295°
2026-04-27 15:04 50.94070 4.40559 38228 ft 403 kts 295°
2026-04-27 15:05 50.96664 4.32682 38224 ft 403 kts 295°
2026-04-27 15:05 50.99256 4.24792 38227 ft 403 kts 295°
2026-04-27 15:06 51.01839 4.16897 38225 ft 403 kts 295°
2026-04-27 15:06 51.04417 4.08999 38222 ft 403 kts 295°
2026-04-27 15:07 51.06989 4.01091 38220 ft 403 kts 295°
2026-04-27 15:07 51.09553 3.93168 38214 ft 403 kts 295°
2026-04-27 15:08 51.12118 3.85243 38215 ft 403 kts 295°
2026-04-27 15:08 51.14655 3.77365 38207 ft 403 kts 295°
2026-04-27 15:09 51.17202 3.69418 38209 ft 403 kts 295°
2026-04-27 15:09 51.19745 3.61463 38210 ft 403 kts 295°
2026-04-27 15:10 51.22285 3.53491 38216 ft 403 kts 295°
2026-04-27 15:10 51.24819 3.45517 38217 ft 403 kts 294°
2026-04-27 15:11 51.27353 3.37526 38230 ft 403 kts 294°
2026-04-27 15:11 51.29880 3.29531 38256 ft 403 kts 295°
2026-04-27 15:12 51.32400 3.21521 38260 ft 403 kts 295°
2026-04-27 15:12 51.34917 3.13504 38243 ft 403 kts 295°
2026-04-27 15:13 51.36171 3.09495 37791 ft 403 kts 295°
2026-04-27 15:13 51.37424 3.05490 37117 ft 403 kts 294°
2026-04-27 15:13 51.38682 3.01482 36444 ft 402 kts 294°
2026-04-27 15:13 51.39944 2.97487 35785 ft 402 kts 294°
2026-04-27 15:14 51.41210 2.93493 35122 ft 402 kts 294°
2026-04-27 15:14 51.42472 2.89503 34481 ft 401 kts 294°
2026-04-27 15:14 51.43721 2.85541 33959 ft 396 kts 294°
2026-04-27 15:14 51.44954 2.81621 33338 ft 393 kts 294°
2026-04-27 15:15 51.46179 2.77725 32752 ft 389 kts 294°
2026-04-27 15:15 51.47389 2.73868 32193 ft 385 kts 294°
2026-04-27 15:15 51.48586 2.70039 31652 ft 382 kts 294°
2026-04-27 15:15 51.49771 2.66249 31131 ft 379 kts 294°
2026-04-27 15:16 51.51210 2.62720 30565 ft 381 kts 307°
2026-04-27 15:16 51.52958 2.59503 29803 ft 383 kts 308°
2026-04-27 15:16 51.54722 2.56315 29160 ft 381 kts 308°
2026-04-27 15:16 51.56460 2.53202 28555 ft 377 kts 309°
2026-04-27 15:17 51.58192 2.50057 27966 ft 374 kts 308°
2026-04-27 15:17 51.59873 2.46892 27403 ft 371 kts 307°
2026-04-27 15:17 51.61518 2.43730 26858 ft 368 kts 307°
2026-04-27 15:17 51.63145 2.40574 26327 ft 365 kts 307°
2026-04-27 15:18 51.64757 2.37438 25832 ft 362 kts 308°
2026-04-27 15:18 51.66355 2.34325 25353 ft 359 kts 308°
2026-04-27 15:18 51.67940 2.31242 24882 ft 357 kts 308°
2026-04-27 15:18 51.69520 2.28173 24410 ft 354 kts 308°
2026-04-27 15:19 51.71094 2.25124 23938 ft 352 kts 308°
2026-04-27 15:19 51.72658 2.22097 23404 ft 350 kts 308°
2026-04-27 15:19 51.74212 2.19088 22861 ft 348 kts 308°
2026-04-27 15:19 51.75753 2.16101 22346 ft 346 kts 308°
2026-04-27 15:20 51.77285 2.13120 21829 ft 343 kts 307°
2026-04-27 15:20 51.78800 2.10160 21324 ft 341 kts 307°
2026-04-27 15:20 51.80219 2.07118 20928 ft 336 kts 297°
2026-04-27 15:20 51.81237 2.03730 20675 ft 335 kts 294°
2026-04-27 15:21 51.82231 2.00321 20422 ft 335 kts 294°
2026-04-27 15:21 51.83222 1.96926 20177 ft 334 kts 293°
2026-04-27 15:21 51.84206 1.93536 19925 ft 333 kts 293°
2026-04-27 15:21 51.85183 1.90161 19683 ft 330 kts 293°
2026-04-27 15:22 51.86156 1.86796 19438 ft 329 kts 293°
2026-04-27 15:22 51.87126 1.83455 19200 ft 328 kts 293°
2026-04-27 15:22 51.88114 1.80129 18959 ft 327 kts 294°
2026-04-27 15:22 51.89109 1.76829 18724 ft 326 kts 294°
2026-04-27 15:23 51.90106 1.73535 18476 ft 325 kts 294°
2026-04-27 15:23 51.91099 1.70248 18203 ft 324 kts 294°
2026-04-27 15:23 51.92085 1.66972 17933 ft 323 kts 294°
2026-04-27 15:23 51.93066 1.63701 17671 ft 323 kts 294°
2026-04-27 15:24 51.94041 1.60431 17403 ft 322 kts 294°
2026-04-27 15:24 51.95012 1.57168 17138 ft 321 kts 294°
2026-04-27 15:24 51.95977 1.53916 16871 ft 320 kts 294°
2026-04-27 15:24 51.96942 1.50665 16618 ft 320 kts 294°
2026-04-27 15:25 51.97905 1.47420 16362 ft 319 kts 294°
2026-04-27 15:25 51.98865 1.44185 16093 ft 318 kts 294°
2026-04-27 15:25 51.99809 1.40998 15842 ft 317 kts 294°
2026-04-27 15:25 52.00761 1.37769 15593 ft 317 kts 294°
2026-04-27 15:26 52.01705 1.34549 15333 ft 316 kts 294°
2026-04-27 15:26 52.02649 1.31331 15089 ft 315 kts 294°
2026-04-27 15:26 52.03592 1.28117 14840 ft 315 kts 294°
2026-04-27 15:26 52.04534 1.24915 14611 ft 313 kts 295°
2026-04-27 15:27 52.05468 1.21731 14362 ft 311 kts 295°
2026-04-27 15:27 52.06393 1.18564 14239 ft 311 kts 295°
2026-04-27 15:27 52.07320 1.15392 14244 ft 311 kts 295°
2026-04-27 15:27 52.08251 1.12216 14247 ft 311 kts 295°
2026-04-27 15:28 52.09183 1.09045 14247 ft 311 kts 295°
2026-04-27 15:28 52.10112 1.05872 14247 ft 311 kts 294°
2026-04-27 15:28 52.10709 1.02511 14248 ft 311 kts 278°
2026-04-27 15:28 52.10970 0.99022 14247 ft 311 kts 277°
2026-04-27 15:29 52.11202 0.95534 14248 ft 308 kts 277°
2026-04-27 15:29 52.11415 0.92084 14244 ft 306 kts 276°
2026-04-27 15:29 52.11625 0.88643 14244 ft 306 kts 276°
2026-04-27 15:29 52.11834 0.85201 14245 ft 305 kts 276°
2026-04-27 15:30 52.12041 0.81762 14243 ft 305 kts 276°
2026-04-27 15:30 52.12245 0.78332 14245 ft 305 kts 276°
2026-04-27 15:30 52.12450 0.74899 14245 ft 305 kts 276°
2026-04-27 15:30 52.12655 0.71465 14246 ft 305 kts 276°
2026-04-27 15:31 52.12861 0.68030 14243 ft 305 kts 276°
2026-04-27 15:31 52.13066 0.64595 14244 ft 305 kts 276°
2026-04-27 15:31 52.13269 0.61161 14244 ft 305 kts 276°
2026-04-27 15:31 52.13293 0.57714 14244 ft 307 kts 264°
2026-04-27 15:32 52.12930 0.54286 14246 ft 307 kts 262°
2026-04-27 15:32 52.12538 0.50867 14246 ft 307 kts 261°
2026-04-27 15:32 52.12140 0.47451 14239 ft 307 kts 261°
2026-04-27 15:32 52.11738 0.44033 14245 ft 307 kts 261°
2026-04-27 15:33 52.11335 0.40616 14247 ft 307 kts 261°
2026-04-27 15:33 52.10932 0.37203 14247 ft 307 kts 261°
2026-04-27 15:33 52.10527 0.33789 14246 ft 307 kts 261°
2026-04-27 15:33 52.10122 0.30379 14245 ft 307 kts 261°
2026-04-27 15:34 52.09716 0.26970 14248 ft 307 kts 261°
2026-04-27 15:34 52.09309 0.23562 14247 ft 307 kts 261°
2026-04-27 15:34 52.08900 0.20153 14247 ft 307 kts 261°
2026-04-27 15:34 52.08498 0.16795 14219 ft 306 kts 261°
2026-04-27 15:35 52.08087 0.13379 13789 ft 303 kts 261°
2026-04-27 15:35 52.07683 0.10019 13292 ft 303 kts 261°
2026-04-27 15:35 52.07279 0.06664 12799 ft 302 kts 261°
2026-04-27 15:35 52.06876 0.03327 12303 ft 301 kts 261°
2026-04-27 15:36 52.06477 -0.00004 11813 ft 300 kts 261°
2026-04-27 15:36 52.06086 -0.03291 11331 ft 299 kts 261°
2026-04-27 15:36 52.05684 -0.06647 10890 ft 298 kts 261°
2026-04-27 15:36 52.05296 -0.09896 10584 ft 292 kts 261°
2026-04-27 15:37 52.04913 -0.13070 10438 ft 281 kts 261°
2026-04-27 15:37 52.04541 -0.16152 10116 ft 276 kts 261°
2026-04-27 15:37 52.04169 -0.19212 9671 ft 276 kts 261°
2026-04-27 15:37 52.03795 -0.22267 9233 ft 275 kts 261°
2026-04-27 15:38 52.03284 -0.25257 8804 ft 276 kts 249°
2026-04-27 15:38 52.02468 -0.28079 8369 ft 276 kts 246°
2026-04-27 15:38 52.01623 -0.30876 7948 ft 275 kts 246°
2026-04-27 15:38 52.00782 -0.33660 7542 ft 274 kts 246°
2026-04-27 15:39 51.99945 -0.36432 7147 ft 273 kts 246°
2026-04-27 15:39 51.99113 -0.39187 6873 ft 272 kts 246°
2026-04-27 15:39 51.98279 -0.41942 6577 ft 272 kts 246°
2026-04-27 15:39 51.97448 -0.44691 6263 ft 271 kts 246°
2026-04-27 15:40 51.96620 -0.47433 5954 ft 271 kts 246°
2026-04-27 15:40 51.95798 -0.50175 5642 ft 269 kts 246°
2026-04-27 15:40 51.94991 -0.52853 5456 ft 258 kts 246°
2026-04-27 15:40 51.94216 -0.55415 5340 ft 248 kts 246°
2026-04-27 15:41 51.93462 -0.57867 5209 ft 238 kts 246°
2026-04-27 15:41 51.92735 -0.60221 5083 ft 229 kts 246°
2026-04-27 15:41 51.92035 -0.62494 4947 ft 221 kts 246°
2026-04-27 15:41 51.91358 -0.64677 4829 ft 213 kts 246°
2026-04-27 15:42 51.90506 -0.66570 4688 ft 208 kts 218°
2026-04-27 15:42 51.89160 -0.67321 4553 ft 203 kts 180°
2026-04-27 15:42 51.87803 -0.66903 4360 ft 201 kts 163°
2026-04-27 15:42 51.86484 -0.66219 4159 ft 198 kts 161°
2026-04-27 15:43 51.85182 -0.65508 3975 ft 197 kts 161°
2026-04-27 15:43 51.84037 -0.64365 3794 ft 195 kts 127°
2026-04-27 15:43 51.83470 -0.62403 3553 ft 193 kts 100°
2026-04-27 15:43 51.83411 -0.60281 3312 ft 189 kts 79°
2026-04-27 15:44 51.83741 -0.58238 3046 ft 188 kts 71°
2026-04-27 15:44 51.84095 -0.56207 2789 ft 188 kts 70°
2026-04-27 15:44 51.84447 -0.54185 2535 ft 186 kts 70°
2026-04-27 15:44 51.84792 -0.52208 2296 ft 179 kts 71°
2026-04-27 15:45 51.85118 -0.50336 2068 ft 167 kts 71°
2026-04-27 15:45 51.85423 -0.48582 1847 ft 157 kts 70°
2026-04-27 15:45 51.85712 -0.46924 1637 ft 149 kts 70°
2026-04-27 15:45 51.85985 -0.45355 1444 ft 141 kts 70°
2026-04-27 15:46 51.86245 -0.43861 1259 ft 136 kts 69°
2026-04-27 15:46 51.86497 -0.42413 1082 ft 131 kts 71°
2026-04-27 15:46 51.86744 -0.40984 903 ft 132 kts 69°
2026-04-27 15:46 51.86994 -0.39567 727 ft 130 kts 70°
2026-04-27 15:47 51.87237 -0.38164 563 ft 130 kts 70°
2026-04-27 15:47 51.87446 -0.36922 539 ft 81 kts 75°
2026-04-27 15:47 51.87545 -0.36355 536 ft 42 kts 74°
2026-04-27 15:47 51.87612 -0.35973 523 ft 14 kts 74°
2026-04-27 15:48 51.87644 -0.35905 522 ft 12 kts 27°
2026-04-27 15:48 51.87708 -0.35923 528 ft 7 kts 342°
2026-04-27 15:48 51.87754 -0.35949 530 ft 7 kts 335°
2026-04-27 15:49 51.87769 -0.36162 532 ft 15 kts 255°
2026-04-27 15:49 51.87736 -0.36354 532 ft 20 kts 254°
2026-04-27 15:49 51.87696 -0.36587 533 ft 23 kts 255°
2026-04-27 15:49 51.87652 -0.36842 534 ft 25 kts 255°
2026-04-27 15:50 51.87605 -0.37120 534 ft 25 kts 253°
2026-04-27 15:50 51.87580 -0.37338 534 ft 19 kts 278°
2026-04-27 15:50 51.87671 -0.37494 534 ft 21 kts 324°
2026-04-27 15:50 51.87743 -0.37710 534 ft 22 kts 294°
2026-04-27 15:51 51.87795 -0.37891 534 ft 13 kts 296°
2026-04-27 15:51 51.87846 -0.37992 534 ft 11 kts 327°
2026-04-27 15:51 51.87877 -0.37990 534 ft 4 kts 58°
2026-04-27 15:51 51.87885 -0.37944 534 ft 4 kts 74°
2026-04-27 15:52 51.87889 -0.37922 534 ft 1 kts 72°